Погода в Клине

Россия / Тульская область     54°22′48″N   38°08′21″E
темп.,
°C
ветер,
м/с
пор.,
м/с
влажн.,
%
обл.,
%
осадки,
мм/ч
давл.,
гПа
погр.,
м
11 апреля, вс
вс1100:00+3ююз35620 0.0 102769
03:00+2зюз34680 0.0 102747
06:00+2зюз22700 0.0 102920
09:00+7юз23540 0.0 1030251
12:00+11ююз11420 0.0 1030953
15:00+13в01370 0.0 10301254
18:00+12всв23452 0.0 1030134
21:00+8в33605 0.0 103227
12 апреля, пн
пн1200:00+6в35685 0.0 103269
03:00+4всв3875100 0.0 1032135
06:00+3св41276100 0.0 1032255
09:00+7всв61161100 0.0 1031413
12:00+8в5978100 0.0 1030477
15:00+12в5771100 0.0 1028640
18:00+12в5978100 0.0 1026456
21:00+9в4992100 0.0 1026148
13 апреля, вт
вт1300:00+8вюв389074 0.0 1025123
03:00+8ююв478380 0.0 102492
06:00+7ююв4885100 0.0 1024112
09:00+12ю587192 0.0 1024261
12:00+17ююв575317 0.0 1023737
15:00+19ююв793415 0.0 10221675
18:00+16ююв51046100 0.0 1021301
21:00+13ююв41060100 0.0 1021209
14 апреля, ср
ср1400:00+11ююв4106965 0.0 1021157
03:00+9ю387581 0.0 1020127
06:00+10ююв377596 0.0 1020138
09:00+14ю5116292 0.0 1019489
12:00+18ю695271 0.0 10191266
15:00+17ю6755100 0.3 10181375
18:00+15ю3669100 0.5 1018152
21:00+13юз3481100 0.8 101898
15 апреля, чт
чт1500:00+12ююв2282100 0.1 101823
03:00+10юз2290100 0.2 101719
06:00+9зсз2294100 0.1 101729
09:00+12сз3383100 0.1 1017331
12:00+14ссз4376100 0.1 1017757
15:00+10с5586100 0.3 1017492
18:00+7с6987100 0.3 1017473
21:00+5ссв71287100 1.2 1018635